Location: Newark
(52.2090°N, 4.1550°W)
Time: 18:39:25
(UTC+00:00)

Altair - Visible Passes

Search period start: 22 September 2019 00:00
Search period end: 02 October 2019 00:00
Orbit: 1501 x 1683 km, 47.2° (Epoch: 21 September)

Date Brightness Start Highest point End Pass type
(mag) Time Alt. Az. Time Alt. Az. Time Alt. Az.
22 Sep 9.0 00:36:21 10° W 00:39:11 20° W 00:39:11 20° W visible
22 Sep 7.7 20:02:25 10° SW 20:12:16 58° SSE 20:19:06 22° E visible
22 Sep 7.5 22:06:31 10° W 22:16:34 67° S 22:17:05 66° S visible
23 Sep 8.8 00:11:08 10° W 00:15:04 26° W 00:15:04 26° W visible
23 Sep 7.8 19:37:19 10° SW 19:47:07 56° SSE 19:54:58 17° E visible
23 Sep 7.5 21:41:20 10° W 21:51:23 67° S 21:52:58 60° SE visible
23 Sep 8.6 23:45:55 10° W 23:50:57 31° W 23:50:57 31° W visible
24 Sep 7.9 19:12:13 10° SW 19:21:58 55° SSE 19:30:52 13° E visible
24 Sep 7.6 21:16:09 10° W 21:26:12 68° S 21:28:51 52° SE visible
24 Sep 8.3 23:20:42 10° W 23:26:51 38° WSW 23:26:51 38° WSW visible
25 Sep 7.9 18:47:09 10° SW 18:56:49 53° SSE 19:06:30 10° E visible
25 Sep 7.6 20:50:58 10° W 21:01:01 68° S 21:04:45 43° ESE visible
25 Sep 8.1 22:55:30 10° W 23:02:44 44° WSW 23:02:44 44° WSW visible
26 Sep 7.6 20:25:47 10° WSW 20:35:50 68° S 20:40:38 35° ESE visible
26 Sep 7.9 22:30:17 10° W 22:38:38 51° SW 22:38:38 51° SW visible
27 Sep 9.4 00:35:28 10° W 00:36:37 13° W 00:36:37 13° W visible
27 Sep 7.7 20:00:37 10° WSW 20:10:39 67° S 20:16:32 29° ESE visible
27 Sep 7.7 22:05:06 10° W 22:14:32 56° SSW 22:14:32 56° SSW visible
28 Sep 9.2 00:10:10 10° W 00:12:32 17° W 00:12:32 17° W visible
28 Sep 7.7 19:35:28 10° WSW 19:45:28 67° S 19:52:27 23° E visible
28 Sep 7.6 21:39:54 10° W 21:49:46 58° SSW 21:50:27 57° S visible
28 Sep 9.0 23:44:52 10° W 23:48:26 21° W 23:48:26 21° W visible
29 Sep 7.8 19:10:18 10° WSW 19:20:17 66° S 19:28:23 18° E visible
29 Sep 7.6 21:14:42 10° W 21:24:37 60° SSW 21:26:23 53° SSE visible
29 Sep 8.8 23:19:35 10° W 23:24:22 25° WSW 23:24:22 25° WSW visible
30 Sep 7.8 18:45:09 10° WSW 18:55:07 66° S 19:04:20 13° E visible
30 Sep 7.7 20:49:31 10° W 20:59:27 61° SSW 21:02:19 47° SE visible
30 Sep 8.6 22:54:19 10° W 23:00:19 30° WSW 23:00:19 30° WSW visible
01 Oct 7.9 18:20:01 10° WSW 18:29:56 65° S 18:39:56 10° E visible
01 Oct 7.7 20:24:19 10° W 20:34:17 63° SSW 20:38:17 40° SE visible
01 Oct 8.4 22:29:04 10° W 22:36:17 35° WSW 22:36:17 35° WSW visible
